Location: Chassagnes
(44.4047°N, 4.1657°E)
Time: 11:48:33
(UTC+00:00)

Cosmos 1953 Rocket - Pass Details

Date: 27 October 2020
Orbit: 605 x 634 km, 82.5° (Epoch: 23 November)

Event Time Altitude Azimuth Distance (km) Brightness Sun altitude
Rises 17:35:55 0° 351° (N) 2,901 7.0 -10.7°
Reaches altitude 10° 17:38:09 10° 351° (N) 1,995 6.2 -11.1°
Maximum altitude 17:42:34 87° 265° (W) 631 3.6 -11.9°
Drops below altitude 10° 17:47:00 10° 174° (S) 1,996 6.2 -12.6°
Sets 17:49:14 0° 174° (S) 2,903 7.0 -13.0°
